Theta_e
313 314 314 313 312 310 310 312 301 305 309 304 304 300 296 296 293 296 296 296 294 292 291 288 289 290 293 295 295 289 292 288 283 287 293 293 291 289 288 283 282 284 283 282
313 313 313 312 311 309 310 303 301 306 306 296 294 295 292 294 293 293 292 292 293 292 290 286 289 290 296 295 292 290 291 287 282 287 290 292 289 291 289 288 288 281 278 280
312 312 312 311 311 310 308 303 299 300 301 299 295 292 290 290 295 292 293 292 293 290 289 291 288 289 292 294 292 294 293 287 284 281 285 289 285 287 288 286 282 282 282 283
312 312 312 311 310 311 308 303 296 296 295 293 294 294 291 289 289 293 293 291 290 288 286 288 287 290 290 292 293 292 291 285 287 288 288 287 286 285 286 284 285 281 283 283
312 312 312 311 310 309 305 300 299 298 294 293 293 291 290 290 289 290 288 288 290 290 287 288 286 288 289 288 291 290 291 284 286 283 286 286 283 286 286 286 286 285 285 284
310 311 311 310 309 309 303 303 301 300 290 292 293 292 291 290 290 291 292 291 289 289 291 293 293 294 293 292 290 289 288 287 284 279 285 284 280 285 286 286 287 286 282 287
310 309 311 311 309 308 305 303 302 298 292 294 293 291 291 290 290 289 291 293 290 293 297 295 295 293 292 292 291 292 288 286 285 280 283 275 286 291 290 287 288 289 289 290
309 309 310 310 309 308 306 306 303 298 293 295 292 291 291 292 292 291 291 293 294 297 293 289 287 288 287 289 291 291 291 287 283 279 279 283 285 288 287 285 285 290 289 291
309 309 309 310 309 308 308 305 307 302 296 293 294 292 292 292 292 291 292 295 297 295 292 289 281 283 284 283 285 291 290 289 285 282 277 274 284 289 292 291 281 291 291 290
308 308 309 309 309 309 308 305 307 303 298 297 296 293 292 295 293 291 292 292 292 294 290 287 285 284 286 281 281 282 284 285 282 282 280 282 289 291 292 279 282 292 293 292
308 308 308 308 309 309 309 305 307 303 298 299 297 297 294 295 294 291 293 291 291 291 287 287 287 285 286 284 286 284 282 281 281 282 279 276 291 290 284 289 293 293 293 294
308 308 307 307 308 309 309 305 307 307 301 299 301 300 301 299 298 295 295 293 291 294 290 290 290 286 286 285 280 289 282 286 284 284 284 291 293 291 295 296 293 294 293 294
308 308 308 307 308 309 308 305 306 304 299 299 298 297 301 302 301 302 294 295 295 294 297 293 291 285 288 283 284 285 288 291 286 287 289 290 291 293 295 296 294 295 295 294
310 309 308 308 308 308 308 304 305 304 299 292 296 301 297 303 302 300 300 298 298 297 297 291 289 285 291 286 287 286 288 289 286 286 289 291 292 294 294 294 295 294 294 294
311 309 309 308 308 308 309 309 308 306 298 293 294 298 299 300 300 299 300 298 296 293 289 288 286 290 288 289 288 286 290 288 286 285 290 291 291 294 294 293 293 293 293 293
310 309 310 308 308 307 306 298 305 306 304 294 288 298 296 297 298 297 297 298 296 293 289 287 289 292 289 285 283 289 291 293 293 291 294 294 294 295 295 292 293 293 293 293
311 310 310 308 308 307 301 298 302 306 305 295 290 290 296 297 296 297 296 297 294 292 289 287 289 289 291 287 283 289 292 293 294 295 294 290 292 289 293 293 293 292 292 291
311 309 308 307 307 306 302 306 305 307 301 298 288 288 290 295 292 292 297 292 292 290 289 290 289 290 290 283 289 291 293 294 294 293 294 292 292 291 290 291 291 288 288 289
310 309 307 305 303 299 300 306 306 307 299 289 288 284 286 293 294 295 293 294 286 293 286 287 289 286 283 287 290 291 293 291 290 291 290 290 289 288 288 288 288 287 288 289
309 303 298 293 300 306 305 300 295 294 295 295 287 292 288 291 291 290 291 290 287 282 288 291 286 284 290 292 293 293 292 292 291 287 286 287 285 287 287 287 289 288 288 289
301 295 293 300 304 299 295 290 289 289 286 289 289 290 287 293 287 288 291 288 288 281 285 284 284 283 288 293 292 293 292 291 290 290 289 288 288 287 286 287 288 288 288 288
300 299 299 296 293 290 287 285 288 285 285 291 288 288 290 290 294 289 288 285 286 279 288 283 280 287 292 292 291 291 291 290 290 290 288 288 288 288 288 287 287 288 288 288
299 294 290 289 287 283 281 280 282 284 288 290 288 286 288 289 292 288 286 280 280 288 282 280 285 290 292 292 291 290 291 290 289 288 289 288 288 288 287 287 288 289 288 288
288 285 283 284 283 285 288 288 290 292 291 290 290 287 287 289 285 286 280 284 285 279 278 281 288 291 292 291 290 289 289 288 287 287 287 287 287 287 288 287 288 288 287 288
285 287 283 284 290 293 292 294 292 292 293 290 287 287 288 284 283 284 284 280 278 279 280 287 291 292 290 289 289 289 289 288 287 287 287 287 287 287 287 288 288 287 288 288
286 287 287 291 290 290 290 291 290 292 292 292 291 286 284 283 284 281 279 279 277 283 288 292 292 290 289 289 290 289 289 288 288 288 288 287 287 286 286 287 288 288 288 288
284 287 292 294 293 292 291 291 290 294 290 286 287 282 282 287 282 280 283 281 285 289 291 292 291 290 290 290 290 289 288 288 288 288 288 287 288 287 286 285 286 289 289 289
Wind_Speed
24 26 27 28 26 22 6 2 1 8 6 2 3 4 4 2 3 4 4 4 5 3 3 4 3 2 3 3 6 7 4 8 10 17 16 9 9 9 2 5 12 15 17 28
23 24 25 27 24 16 5 2 2 4 6 1 5 6 6 6 2 5 2 2 5 2 2 5 2 2 6 1 6 7 8 3 8 6 6 5 4 9 8 15 15 22 18 18
24 25 26 27 26 16 5 2 2 4 6 4 8 8 4 5 4 4 4 2 0 2 4 1 4 4 2 1 7 9 6 9 12 11 15 17 22 22 21 21 14 21 19 29
24 26 28 28 27 18 4 4 4 3 4 6 6 4 2 5 3 2 1 2 1 3 4 6 4 2 6 7 3 5 5 9 14 16 19 20 23 23 23 25 25 25 25 29
22 24 27 30 29 24 4 2 2 4 5 2 3 2 3 2 3 3 2 4 1 4 6 6 9 11 9 7 3 2 6 9 14 18 20 21 24 24 25 24 25 27 26 26
21 22 24 26 29 19 5 2 1 4 1 2 3 3 4 4 1 3 3 1 5 7 7 9 10 10 11 13 12 12 11 6 8 10 10 19 19 12 12 19 23 22 24 25
17 19 21 22 23 19 5 4 4 4 4 2 2 5 3 5 2 1 2 4 4 4 7 14 14 15 15 15 15 13 11 11 9 14 18 8 2 14 23 22 19 20 24 21
13 15 18 19 19 18 8 5 4 4 3 2 5 6 4 4 4 3 4 3 3 5 8 7 6 5 6 7 11 13 14 12 8 6 12 22 20 15 22 23 22 23 21 16
9 11 13 15 16 17 4 7 5 3 1 6 3 7 5 3 4 5 4 2 3 2 3 2 3 3 5 3 5 8 8 11 11 15 19 16 15 26 17 15 17 11 13 20
7 8 9 11 12 13 7 4 8 3 2 4 5 5 5 3 1 2 2 4 5 4 3 3 3 4 2 5 5 6 8 9 14 13 17 16 19 11 10 12 13 26 27 25
6 6 5 7 9 11 9 4 6 5 3 3 7 5 5 4 4 2 7 3 6 4 4 2 2 4 4 6 9 10 8 9 12 12 14 18 12 19 25 21 22 23 23 22
6 5 5 5 6 7 8 2 4 4 3 4 4 9 11 8 3 4 6 4 2 3 4 3 3 5 5 8 8 7 9 8 11 13 15 23 24 25 23 19 21 20 19 19
8 6 6 5 6 5 6 4 3 3 3 4 4 7 12 12 12 7 4 4 5 4 5 3 3 6 7 8 9 16 14 17 16 19 21 23 25 23 20 18 21 19 18 20
13 11 8 7 6 5 6 3 2 3 4 4 1 2 4 5 13 14 13 5 2 4 2 3 4 6 7 8 13 18 15 18 16 20 22 21 21 20 22 23 21 20 19 22
13 9 6 9 7 6 7 5 4 5 4 4 5 9 9 10 9 13 14 13 10 4 2 4 5 6 7 8 13 16 13 17 13 15 21 19 21 19 21 21 23 22 24 27
15 15 14 10 8 5 4 3 4 6 4 3 5 3 4 4 5 14 13 10 9 5 3 3 5 11 6 5 8 12 9 12 16 16 18 17 20 21 24 21 26 26 25 26
18 15 13 10 9 6 4 4 4 6 6 3 5 4 4 4 5 5 7 9 3 3 2 5 7 9 7 6 17 22 19 17 15 14 15 13 15 21 25 26 26 27 26 26
16 12 12 10 7 5 5 5 7 7 3 3 4 5 3 9 6 6 4 4 3 4 4 5 7 5 5 9 15 14 13 13 13 12 15 20 24 24 26 26 24 25 23 24
18 15 11 3 4 4 2 12 8 6 4 3 4 4 2 5 3 3 5 5 5 5 6 6 5 6 11 12 14 12 7 9 15 18 21 22 23 25 24 25 25 22 22 22
18 7 5 4 4 17 13 4 4 4 4 5 6 8 4 6 6 6 5 4 4 4 7 4 5 11 18 13 8 3 7 11 16 20 22 22 20 20 23 25 21 21 22 23
5 6 3 4 10 2 3 4 6 6 5 6 5 10 7 4 5 5 5 3 4 4 3 5 5 7 11 8 6 5 8 11 13 14 16 18 19 18 18 18 20 18 20 21
9 8 6 4 3 3 6 6 6 9 9 7 6 5 8 3 2 4 4 4 3 7 4 4 6 4 9 8 5 7 8 10 12 12 15 15 17 16 16 16 18 17 19 20
5 4 5 6 6 8 10 15 8 7 6 8 9 7 5 4 5 4 5 6 7 1 5 6 7 7 8 6 5 7 7 8 11 13 13 16 16 16 15 15 17 17 17 18
5 9 10 10 9 13 12 12 9 8 7 12 10 7 5 4 6 4 5 6 2 5 7 7 4 9 8 5 5 6 8 8 11 12 13 14 15 14 15 14 15 14 16 18
6 8 12 15 12 9 6 9 6 5 11 12 8 5 5 4 5 6 6 6 8 8 6 5 4 7 5 5 5 5 6 8 8 10 11 12 14 12 13 14 14 14 15 16
8 7 9 11 12 13 8 11 8 9 11 9 4 5 6 7 6 9 11 6 8 5 6 3 6 7 5 5 4 4 5 7 7 9 8 10 11 11 12 13 13 14 14 14
8 9 12 12 11 12 12 10 10 11 11 7 5 10 11 5 5 7 7 7 5 4 4 4 7 5 5 5 4 4 5 6 7 9 8 9 9 10 11 12 13 12 11 11
Wind_Direction
5 4 2 0 357 343 288 301 222 7 321 206 29 72 65 1 38 36 60 45 36 7 354 302 288 303 14 36 339 332 22 308 287 288 304 313 269 249 318 302 283 290 295 272
6 5 4 360 0 354 311 50 47 38 298 342 99 116 92 59 68 34 51 92 10 332 304 299 250 287 104 50 343 13 6 245 302 172 162 135 197 194 271 293 281 270 273 276
4 4 6 4 357 349 300 236 184 80 57 19 108 130 121 117 48 75 46 85 268 289 267 244 299 266 86 163 290 313 267 246 249 270 304 308 292 290 295 284 271 282 271 290
5 4 4 3 357 348 295 344 72 351 53 61 89 80 100 137 128 114 211 135 10 358 282 280 248 296 298 291 114 261 272 274 278 288 299 293 289 290 286 277 279 274 291 283
7 6 6 2 356 337 69 6 145 97 86 77 116 101 85 147 122 290 149 278 151 299 282 304 298 311 299 282 303 274 295 275 302 290 283 277 276 275 274 276 273 273 285 289
9 7 8 7 1 349 60 62 99 296 151 105 249 61 119 139 162 119 331 345 298 281 305 313 299 289 276 272 276 286 285 276 301 285 303 306 286 267 279 303 300 294 292 302
8 9 11 16 10 6 40 28 313 274 108 237 87 144 145 161 179 230 178 221 266 32 320 299 270 252 253 255 252 242 249 265 274 282 299 262 59 323 300 299 304 295 290 301
9 12 11 16 19 357 49 29 328 333 117 111 160 173 172 172 173 232 263 232 288 340 292 284 307 191 212 218 236 227 227 253 278 265 274 283 292 316 331 310 307 296 297 342
9 10 12 10 15 1 27 36 339 347 129 206 94 179 197 238 212 177 193 186 304 267 281 270 287 291 359 293 305 210 255 258 247 273 287 285 324 310 323 326 287 20 330 306
354 3 7 6 357 355 345 46 2 319 280 160 178 205 204 179 197 268 131 171 195 235 235 258 269 279 61 260 280 276 261 264 254 261 268 276 286 320 358 282 306 325 315 313
324 335 351 348 344 337 333 58 22 345 312 177 219 210 195 163 221 236 104 225 188 210 241 276 253 243 263 283 277 278 271 275 276 275 282 286 336 319 306 310 314 310 305 304
288 293 300 307 320 326 318 348 19 355 275 344 259 248 249 247 254 263 165 327 169 224 237 226 315 253 239 253 276 273 266 245 280 277 267 291 298 292 290 295 301 307 311 304
261 264 265 273 294 307 272 327 352 297 298 251 223 238 237 234 231 218 244 204 228 211 259 308 278 262 279 271 267 293 283 290 281 291 281 293 295 293 303 324 308 300 298 299
217 225 233 233 257 282 256 267 316 302 299 281 163 55 234 211 215 223 222 271 238 317 215 235 253 253 245 265 286 285 287 298 285 281 285 289 302 311 317 305 301 301 300 300
219 216 208 221 215 251 274 258 253 258 283 308 295 316 244 211 217 217 219 222 223 216 212 234 241 264 279 272 269 266 261 261 272 289 305 302 302 302 308 301 303 308 299 297
201 209 215 208 195 196 256 275 168 220 211 273 286 315 228 174 225 213 211 214 221 218 187 218 239 260 284 269 277 274 269 293 294 299 317 323 304 298 296 306 302 299 299 297
211 209 194 192 183 201 213 344 35 161 182 251 283 273 143 222 195 203 209 203 173 209 217 232 253 271 260 249 255 263 287 301 318 316 328 307 304 308 302 296 303 314 305 304
204 185 183 193 188 226 260 201 162 182 244 252 266 265 237 181 192 186 181 175 137 194 241 244 250 255 217 249 256 268 275 314 308 329 310 292 294 302 317 318 315 314 313 310
188 193 153 131 208 223 188 143 169 215 260 235 219 226 223 159 209 123 177 187 202 210 217 235 244 224 227 245 261 274 350 318 301 302 309 314 319 321 318 313 314 315 311 310
159 132 181 198 190 114 114 134 168 209 202 227 247 208 218 190 170 185 174 188 228 241 220 172 237 248 258 257 288 318 291 310 317 316 319 325 317 321 321 319 318 319 317 313
163 172 185 78 121 134 189 196 208 189 228 211 210 209 187 197 184 187 211 189 202 243 181 234 240 240 232 166 212 256 302 315 315 320 323 322 318 315 316 316 316 312 316 319
145 113 98 112 153 206 194 203 205 211 228 181 185 175 202 124 186 221 161 230 198 249 132 234 251 251 136 166 224 288 312 312 322 324 321 317 314 314 313 313 323 326 319 317
101 120 163 159 153 198 213 197 200 207 196 166 161 150 135 143 201 207 172 210 225 143 223 235 241 134 164 196 274 294 304 325 322 319 317 320 322 319 325 325 326 324 326 326
155 155 184 197 186 223 199 200 185 191 172 147 159 133 153 140 176 190 213 213 251 239 235 235 198 178 184 228 272 284 315 329 318 321 322 323 325 327 334 334 334 333 332 334
179 181 193 207 221 209 209 196 131 138 139 147 125 119 146 155 192 198 217 202 226 222 232 235 142 163 201 250 272 304 317 319 318 319 319 324 326 334 330 336 336 338 341 340
154 205 215 208 199 211 182 174 159 152 149 144 157 158 172 192 198 191 206 220 219 231 214 187 160 195 225 254 268 291 311 313 313 307 317 319 322 330 324 331 338 339 346 340
182 208 219 242 223 213 180 191 163 156 160 170 165 184 193 147 198 216 208 218 220 227 182 185 188 210 237 250 256 282 302 307 305 306 313 318 316 325 328 333 330 323 342 339